Home > Weather > Edinburgh > Past weeks

Flag for United Kingdom Weather for the Past 2 Weeks in Edinburgh, Scotland, United Kingdom

Now
52 °F

Passing clouds.


Feels Like: 47 °F
Forecast: 46 / 56 °F
Wind: 16 mph from Southwest

Location: Edinburgh Airport

Current Time: May 3, 2016 at 1:44:27 PM

Latest Report: May 3, 2016 at 12:50 PM


Visibility: N/A

Pressure: 30.09 "Hg

Humidity: 72%

Dew Point: 43 °F

Location of EdinburghLocation

Historic Weather in Edinburgh — Graph

°F

Edinburgh Temperature Yesterday

Maximum temperature yesterday: 55 °F (at 12:50 AM)
Minimum temperature yesterday: 43 °F (at 6:50 PM)
Average temperature yesterday: 50 °F

High & Low Weather Summary for the Past Weeks

 TemperatureHumidityPressure
High61 °F (Apr 20, 3:50 PM)100% (Apr 21, 12:50 AM)30.45 "Hg (Apr 21, 12:50 AM)
Low30 °F (Apr 23, 3:20 AM)35% (Apr 24, 4:20 PM)29.53 "Hg (Apr 28, 11:20 PM)
Average44 °F70%30.04 "Hg
* Reported Apr 18 12:20 PM — May 3 12:20 PM, Edinburgh, Weather by CustomWeather, © 2016

Note: Actual official high and low records may vary slightly from our data, if they occured in-between our weather recording intervals... More about our weather records

Advertising

Edinburgh Weather History for the Previous 24 Hours

Scroll right to see more
 ConditionsComfort  
Time TempWeatherWind HumidityBarometerVisibility
12:20 PM
Tue, May 3
46 °FLight rain. Broken clouds.14 mph82%30.09 "HgN/A
11:50 AM52 °FScattered clouds.17 mph67%30.07 "HgN/A
11:20 AM50 °FLight rain. Partly sunny.15 mph71%30.07 "HgN/A
10:50 AM50 °FScattered showers. Scattered clouds.17 mph67%30.07 "HgN/A
10:20 AM50 °FScattered clouds.16 mph71%30.04 "HgN/A
9:50 AM48 °FScattered clouds.16 mph76%30.04 "HgN/A
9:20 AM48 °FScattered clouds.17 mph76%30.04 "HgN/A
8:50 AM46 °FScattered clouds.18 mph82%30.04 "HgN/A
8:20 AM45 °FPassing clouds.18 mph87%30.04 "HgN/A
7:50 AM43 °FPassing clouds.17 mph93%30.01 "HgN/A
7:20 AM43 °FSprinkles. Passing clouds.21 mph87%30.01 "HgN/A
6:20 AM41 °FQuite cool.16 mph87%29.98 "HgN/A
5:50 AM39 °FChilly.13 mph87%29.98 "HgN/A
5:20 AM41 °FPassing clouds.12 mph81%29.98 "HgN/A
4:50 AM43 °FLight rain. Partly cloudy.22 mph87%29.98 "HgN/A
4:20 AM41 °FQuite cool.14 mph87%29.98 "HgN/A
3:50 AM41 °FPassing clouds.14 mph87%29.95 "HgN/A
3:20 AM43 °FLight rain. Partly cloudy.15 mph87%29.98 "HgN/A
2:50 AM43 °FLight rain. Passing clouds.7 mph87%29.95 "HgN/A
2:20 AM41 °FPassing clouds.13 mph87%29.95 "HgN/A
1:20 AM41 °FLight rain. Partly cloudy.13 mph87%29.95 "HgN/A
12:50 AM41 °FQuite cool.13 mph87%29.95 "HgN/A
12:20 AM41 °FPassing clouds.15 mph87%29.95 "HgN/A
11:50 PM
Mon, May 2
43 °FQuite cool.16 mph76%29.92 "HgN/A
11:20 PM43 °FQuite cool.16 mph81%29.92 "HgN/A
10:50 PM43 °FPassing clouds.13 mph81%29.92 "HgN/A
10:20 PM43 °FPassing clouds.12 mph76%29.92 "HgN/A
9:50 PM43 °FQuite cool.15 mph76%29.89 "HgN/A
9:20 PM43 °FLight rain. Passing clouds.18 mph76%29.89 "HgN/A
8:50 PM43 °FPassing clouds.13 mph81%29.89 "HgN/A
8:20 PM45 °FPassing clouds.10 mph81%29.89 "HgN/A
7:50 PM45 °FPassing clouds.10 mph76%29.86 "HgN/A
7:20 PM45 °FPassing clouds.14 mph76%29.86 "HgN/A
6:50 PM43 °FLight rain. Partly sunny.15 mph81%29.86 "HgN/A
6:20 PM48 °FScattered clouds.10 mph71%29.83 "HgN/A
5:50 PM50 °FPartly sunny.9 mph62%29.83 "HgN/A
5:20 PM52 °FPassing clouds.17 mph58%29.83 "HgN/A
4:50 PM48 °FBroken clouds.12 mph76%29.83 "HgN/A
4:20 PM50 °FScattered clouds.14 mph67%29.80 "HgN/A
3:50 PM50 °FLight rain. Partly sunny.13 mph76%29.80 "HgN/A
3:20 PM52 °FLight rain. Partly sunny.17 mph58%29.80 "HgN/A
2:50 PM55 °FScattered clouds.22 mph51%29.80 "HgN/A
2:20 PM52 °FPassing clouds.22 mph62%29.80 "HgN/A
1:50 PM45 °FPartly sunny.20 mph76%29.80 "HgN/A
1:20 PM50 °FPassing clouds.17 mph76%29.80 "HgN/A
Weather by CustomWeather, © 2016

See weather overviewHow to use our weather pages